Weather History for Jasper, TX

Change the Weather History Date:

Sunday, April 7, 2013

  Actual Average (KLFK) Record (KLFK)
Temperature  
Mean Temperature 69 °F 64 °F  
Max Temperature 79 °F 76 °F 92 °F (1930)
Min Temperature 59 °F 53 °F 31 °F (1971)
Degree Days  
Heating Degree Days 0 3  
Month to date heating degree days 26  
Since 1 July heating degree days 1870  
Cooling Degree Days 4 3  
Month to date cooling degree days 19  
Year to date cooling degree days 79  
Growing Degree Days 19 (Base 50)    
Moisture  
Dew Point 59 °F    
Average Humidity 74    
Maximum Humidity 94    
Minimum Humidity 47    
Precipitation  
Precipitation 0.00 in 0.10 in 2.41 in (1938)
Month to date precipitation 0.69  
Year to date precipitation 12.52  
Snow  
Snow 0.00 in - - ()
Month to date snowfall  
Since 1 July snowfall  
Snow Depth -    
Sea Level Pressure  
Sea Level Pressure 29.99 in    
Wind  
Wind Speed 5 mph (SSE)    
Max Wind Speed 13 mph    
Max Gust Speed 22 mph    
Visibility 10 miles    
Events      
T = Trace of Precipitation, MM = Missing Value Source: NWS Daily Summary

Daily Weather History Graph

Daily Weather History Graph

Search for Another Location

Airport:

Trip Planner

Search our weather history database for the weather conditions in past years. The results will help you decide how hot, cold, wet, or windy it might be!

Date:

Astronomy

Apr. 07, 2013 Rise Set
Actual Time 6:57 AM CDT 7:39 PM CDT
Civil Twilight 6:32 AM CDT 8:03 PM CDT
Nautical Twilight 6:04 AM CDT 8:32 PM CDT
Astronomical Twilight 5:34 AM CDT 9:02 PM CDT
Moon 5:05 AM CDT (4/7) 5:20 PM CDT (4/7)
Length of Visible Light 13h 30m
Length of Day
12h 41m
Waning Crescent, 8% of the Moon is Illuminated
Apr 7
Waning Crescent
Apr 10
New
Apr 18
First Quarter
Apr 25
Full
May 2
Last Quarter

Hourly Weather History & Observations

Time (CDT) Temp. Dew Point Humidity Pressure Visibility Wind Dir Wind Speed Gust Speed Precip Events Conditions
12:15 AM 59.9 °F 56.5 °F 88% 30.03 in 10.0 mi Calm Calm - N/A   Mostly Cloudy
12:35 AM 60.4 °F 57.0 °F 88% 30.03 in 10.0 mi SE 3.5 mph - N/A   Overcast
12:55 AM 60.8 °F 57.4 °F 88% 30.03 in 10.0 mi SE 3.5 mph - N/A   Overcast
1:15 AM 60.6 °F 57.2 °F 88% 30.03 in 10.0 mi ESE 4.6 mph - N/A   Mostly Cloudy
1:35 AM 60.4 °F 57.4 °F 90% 30.03 in 10.0 mi SE 4.6 mph - N/A   Overcast
1:55 AM 60.3 °F 57.4 °F 90% 30.02 in 10.0 mi SE 4.6 mph - N/A   Mostly Cloudy
2:15 AM 59.9 °F 57.4 °F 91% 30.01 in 10.0 mi SE 4.6 mph - N/A   Mostly Cloudy
2:35 AM 59.9 °F 57.2 °F 91% 30.01 in 10.0 mi SE 4.6 mph - N/A   Mostly Cloudy
2:55 AM 60.1 °F 57.4 °F 91% 30.00 in 10.0 mi ESE 6.9 mph - N/A   Mostly Cloudy
3:15 AM 59.9 °F 57.4 °F 91% 30.00 in 10.0 mi Calm Calm - N/A   Mostly Cloudy
3:35 AM 59.9 °F 57.4 °F 91% 30.00 in 10.0 mi ESE 4.6 mph - N/A   Mostly Cloudy
3:55 AM 59.9 °F 57.6 °F 92% 30.00 in 10.0 mi SE 3.5 mph - N/A   Overcast
4:15 AM 59.9 °F 57.6 °F 92% 29.99 in 10.0 mi SE 4.6 mph - N/A   Overcast
4:35 AM 59.7 °F 57.7 °F 93% 30.00 in 10.0 mi ESE 4.6 mph - N/A   Overcast
4:55 AM 59.9 °F 57.7 °F 93% 29.98 in 10.0 mi ESE 5.8 mph - N/A   Overcast
5:15 AM 59.7 °F 57.7 °F 93% 29.98 in 10.0 mi ESE 5.8 mph - N/A   Overcast
5:35 AM 59.7 °F 57.9 °F 94% 29.99 in 10.0 mi ESE 5.8 mph - N/A   Overcast
5:55 AM 59.9 °F 58.1 °F 94% 29.99 in 10.0 mi ESE 3.5 mph - N/A   Overcast
6:15 AM 59.9 °F 58.1 °F 94% 29.99 in 10.0 mi ESE 4.6 mph - N/A   Overcast
6:35 AM 59.9 °F 57.9 °F 93% 29.99 in 10.0 mi ESE 6.9 mph - N/A   Mostly Cloudy
6:55 AM 59.7 °F 57.7 °F 93% 30.00 in 10.0 mi East 5.8 mph - N/A   Overcast
7:15 AM 59.9 °F 57.7 °F 93% 30.01 in 10.0 mi ESE 4.6 mph - N/A   Mostly Cloudy
7:35 AM 59.9 °F 57.9 °F 93% 30.02 in 10.0 mi Calm Calm - N/A   Overcast
7:55 AM 60.3 °F 58.3 °F 93% 30.03 in 7.0 mi Calm Calm - N/A   Overcast
8:15 AM 60.8 °F 58.8 °F 93% 30.04 in 7.0 mi Calm Calm - N/A   Overcast
8:35 AM 61.5 °F 59.2 °F 92% 30.05 in 10.0 mi Calm Calm - N/A   Overcast
8:55 AM 62.6 °F 59.7 °F 90% 30.05 in 10.0 mi ESE 5.8 mph - N/A   Mostly Cloudy
9:15 AM 64.8 °F 60.6 °F 86% 30.05 in 10.0 mi ESE 5.8 mph - N/A   Mostly Cloudy
9:35 AM 66.6 °F 60.4 °F 81% 30.05 in 10.0 mi SSE 5.8 mph - N/A   Mostly Cloudy
9:55 AM 67.8 °F 60.1 °F 76% 30.05 in 10.0 mi SE 8.1 mph - N/A   Mostly Cloudy
10:15 AM 69.3 °F 60.4 °F 73% 30.06 in 10.0 mi SE 5.8 mph - N/A   Mostly Cloudy
10:35 AM 70.0 °F 60.4 °F 72% 30.05 in 10.0 mi SE 5.8 mph - N/A   Mostly Cloudy
10:55 AM 71.2 °F 60.3 °F 68% 30.05 in 10.0 mi SSE 5.8 mph - N/A   Overcast
11:15 AM 72.9 °F 59.9 °F 64% 30.05 in 10.0 mi South 9.2 mph - N/A   Mostly Cloudy
11:35 AM 73.9 °F 59.0 °F 59% 30.04 in 10.0 mi SSE 10.4 mph 16.1 mph N/A   Mostly Cloudy
11:55 AM 73.4 °F 58.3 °F 59% 30.04 in 10.0 mi South 10.4 mph 18.4 mph N/A   Mostly Cloudy
12:15 PM 75.2 °F 58.8 °F 57% 30.03 in 10.0 mi South 10.4 mph 17.3 mph N/A   Scattered Clouds
12:35 PM 76.5 °F 59.0 °F 55% 30.03 in 10.0 mi South 6.9 mph - N/A   Scattered Clouds
12:55 PM 76.1 °F 58.5 °F 54% 30.02 in 10.0 mi South 9.2 mph - N/A   Mostly Cloudy
1:15 PM 77.2 °F 58.1 °F 52% 30.01 in 10.0 mi SSE 8.1 mph 16.1 mph N/A   Mostly Cloudy
1:35 PM 77.0 °F 58.6 °F 53% 30.01 in 10.0 mi SE 10.4 mph 18.4 mph N/A   Mostly Cloudy
1:55 PM 77.7 °F 58.3 °F 51% 30.00 in 10.0 mi SSE 8.1 mph 16.1 mph N/A   Mostly Cloudy
2:15 PM 78.4 °F 57.9 °F 49% 29.98 in 10.0 mi South 9.2 mph - N/A   Scattered Clouds
2:35 PM 77.9 °F 57.4 °F 49% 29.97 in 10.0 mi SSE 10.4 mph - N/A   Mostly Cloudy
2:55 PM 79.0 °F 57.2 °F 47% 29.95 in 10.0 mi SSE 11.5 mph 18.4 mph N/A   Mostly Cloudy
3:15 PM 78.8 °F 57.7 °F 48% 29.95 in 10.0 mi South 11.5 mph 19.6 mph N/A   Mostly Cloudy
3:35 PM 78.8 °F 57.7 °F 48% 29.94 in 10.0 mi South 8.1 mph 17.3 mph N/A   Mostly Cloudy
3:55 PM 78.3 °F 57.9 °F 49% 29.93 in 10.0 mi South 11.5 mph - N/A   Mostly Cloudy
4:15 PM 78.8 °F 57.9 °F 49% 29.93 in 10.0 mi South 12.7 mph 18.4 mph N/A   Mostly Cloudy
4:35 PM 78.1 °F 56.8 °F 48% 29.92 in 10.0 mi South 10.4 mph 20.7 mph N/A   Scattered Clouds
4:55 PM 78.4 °F 57.0 °F 48% 29.91 in 10.0 mi SE 11.5 mph 19.6 mph N/A   Scattered Clouds
5:15 PM 78.1 °F 57.4 °F 49% 29.91 in 10.0 mi SSE 8.1 mph 18.4 mph N/A   Mostly Cloudy
5:35 PM 77.2 °F 58.1 °F 52% 29.92 in 10.0 mi SSE 11.5 mph 17.3 mph N/A   Mostly Cloudy
5:55 PM 76.5 °F 58.3 °F 53% 29.92 in 10.0 mi South 9.2 mph 21.9 mph N/A   Scattered Clouds
6:15 PM 74.8 °F 58.3 °F 56% 29.93 in 10.0 mi South 6.9 mph - N/A   Clear
6:35 PM 74.3 °F 57.9 °F 57% 29.93 in 10.0 mi South 9.2 mph 16.1 mph N/A   Scattered Clouds
6:55 PM 73.8 °F 57.7 °F 57% 29.93 in 10.0 mi SSE 6.9 mph - N/A   Scattered Clouds
7:15 PM 72.7 °F 58.1 °F 60% 29.92 in 10.0 mi SSE 9.2 mph - N/A   Clear
7:35 PM 71.8 °F 57.9 °F 62% 29.91 in 10.0 mi SSE 5.8 mph - N/A   Clear
7:55 PM 70.5 °F 58.1 °F 65% 29.91 in 10.0 mi South 5.8 mph - N/A   Clear
8:15 PM 69.4 °F 58.6 °F 68% 29.92 in 10.0 mi SSE 3.5 mph - N/A   Clear
8:35 PM 68.7 °F 59.5 °F 72% 29.93 in 10.0 mi South 6.9 mph - N/A   Clear
8:55 PM 68.4 °F 60.3 °F 75% 29.93 in 10.0 mi South 8.1 mph - N/A   Scattered Clouds
9:15 PM 68.2 °F 60.6 °F 77% 29.94 in 10.0 mi South 8.1 mph - N/A   Mostly Cloudy
9:35 PM 67.8 °F 61.0 °F 79% 29.94 in 10.0 mi SSE 6.9 mph - N/A   Mostly Cloudy
9:55 PM 67.8 °F 61.5 °F 80% 29.95 in 10.0 mi South 6.9 mph - N/A   Overcast
10:15 PM 68.0 °F 61.9 °F 81% 29.95 in 10.0 mi South 8.1 mph - N/A   Overcast
10:35 PM 68.2 °F 61.9 °F 80% 29.96 in 10.0 mi South 5.8 mph - N/A   Overcast
10:55 PM 68.0 °F 62.2 °F 82% 29.96 in 10.0 mi SSE 6.9 mph - N/A   Overcast
11:15 PM 68.0 °F 62.6 °F 83% 29.95 in 10.0 mi SSE 9.2 mph - N/A   Overcast
11:35 PM 68.0 °F 62.8 °F 83% 29.95 in 10.0 mi SSE 4.6 mph - N/A   Overcast
11:55 PM 67.6 °F 63.0 °F 85% 29.95 in 10.0 mi SSE 3.5 mph - N/A   Overcast